Location: Bratislava
(48.1500°N, 17.1167°E)
Time: 07:48:09
(UTC+02:00)

Daily predictions for brighter satellites

Satellite Brightness Start Highest point End
(mag) Time Altitude Azimuth Time Altitude Azimuth Time Altitude Azimuth
Cosmos 2056 Rocket 3.6 20:31:01 10° SSW 20:36:09 85° WNW 20:41:25 10° NNE
ATLAS 2AS CENTAUR R/B 4.1 20:33:16 10° SSE 20:38:24 20° ESE 20:43:43 10° ENE
USA 229 DEB 4.4 20:32:24 10° WSW 20:39:09 60° NW 20:46:06 10° NE
USA 229 4.4 20:32:30 10° WSW 20:39:15 61° NW 20:46:12 10° NE
Meteor 2-11 Rocket 4.5 20:34:10 10° N 20:40:19 79° E 20:46:23 10° SSE
Helios 1A 3.4 20:36:38 10° SE 20:40:43 47° ENE 20:44:49 10° N
Resurs 1-3 4.2 20:37:04 10° S 20:41:24 60° WSW 20:45:46 10° NNW
Meteor 1-29 4.5 20:39:51 10° NE 20:42:18 18° E 20:44:44 10° SE
NOSS 3-1 (A) 3.4 20:38:25 10° SSW 20:44:12 69° SE 20:50:46 10° NE
Cosmos 1697 Rocket 3.1 20:40:49 10° SW 20:46:25 70° WNW 20:52:05 10° NNE
Cosmos 44 3.4 20:47:00 10° NW 20:51:21 67° WSW 20:55:52 10° SSE
CZ-4C R/B 4.4 20:46:24 10° NW 20:52:45 34° WSW 20:59:37 10° S
Cosmos 2227 4.4 20:48:52 10° NNW 20:54:30 74° WSW 21:00:08 10° SSE
ERBS 3.0 20:51:26 10° SSW 20:54:37 34° SE 20:57:47 10° ENE
Meteor 1-11 Rocket 4.0 20:51:12 10° SSE 20:56:51 51° E 21:02:23 10° NNE
Cosmos 1850 Rocket 4.2 20:54:32 10° NNW 20:59:51 61° ENE 21:04:52 11° SE
Cosmos 1452 Rocket 3.5 20:54:58 10° S 21:00:12 68° ESE 21:05:28 10° NNE
Cosmos 1420 Rocket 4.1 21:00:44 10° S 21:05:44 53° ESE 21:10:48 10° NNE
Resurs 01 Rocket 3.5 21:03:02 10° SSW 21:07:00 31° W 21:11:01 10° NNW
Cosmos 2360 4.2 21:01:18 10° SSW 21:07:01 90° ESE 21:12:45 10° NNE
YAOGAN 6 2.6 21:03:49 10° SSE 21:07:23 83° WSW 21:10:56 10° NNW
Cosmos 1633 3.4 21:05:20 10° SSW 21:08:51 52° WNW 21:12:27 10° N
Cosmos 1655 Rocket 4.2 21:03:49 10° SSW 21:10:06 81° W 21:16:29 10° N
NOSS 3-1 (C) 4.0 21:08:54 10° SW 21:14:46 66° NW 21:21:29 10° NE
Okean 1 Rocket 3.6 21:12:53 12° SSE 21:16:34 37° E 21:20:38 10° NNE
USA 215 4.4 21:17:47 10° ENE 21:23:49 41° N 21:29:52 10° WNW
Meteor 1-23 Rocket 4.2 21:19:00 10° N 21:24:35 70° ENE 21:29:21 14° SSE
Cosmos 1300 Rocket 3.4 21:21:39 10° S 21:25:55 68° E 21:30:13 10° NNE
MetOp-A 4.2 21:21:24 14° SSE 21:26:03 70° ENE 21:31:24 10° N
Cosmos 2151 Rocket 3.9 21:22:19 10° SSW 21:26:42 69° W 21:31:06 10° N
Cosmos 921 Rocket 4.5 21:24:32 10° SW 21:28:28 39° WNW 21:32:26 10° N
Terra 3.4 21:26:47 15° E 21:29:05 21° ENE 21:32:36 10° NNE
Cosmos 2278 Rocket 4.4 21:27:04 10° N 21:30:15 15° NE 21:33:27 10° ENE
USA 238 DEB 4.3 21:23:50 10° NW 21:30:44 52° NE 21:36:06 17° ESE
USA 238 4.3 21:23:57 10° NW 21:30:50 51° NE 21:36:12 17° ESE
Cosmos 1025 Rocket 3.1 21:31:36 10° N 21:35:50 56° ENE 21:38:13 24° SSE
Cosmos 2322 Rocket 2.1 21:31:24 10° SSW 21:37:03 69° ESE 21:42:44 10° NNE
Cosmos 2263 Rocket 2.2 21:31:21 10° NNW 21:37:05 87° WSW 21:41:13 19° SSE
SeaSat 1 3.5 21:33:31 10° NNE 21:38:16 50° NW 21:43:01 10° SW
Helios 1B rocket 2.6 21:36:47 10° N 21:40:54 75° WNW 21:44:59 10° SSW
ARGOS 3.1 21:37:05 18° SSE 21:41:04 76° ENE 21:46:27 10° NNW
USA 245 3.9 21:37:31 19° SSE 21:41:18 68° ENE 21:45:46 10° N
BREEZE M DEB (TANK) 4.1 21:37:48 10° SSW 21:42:17 20° SSE 21:42:17 20° SSE
CZ-4B DEB 3.7 21:40:55 15° SSW 21:42:58 38° W 21:45:43 10° NNW
Abrixas rocket 2.1 21:41:15 10° W 21:44:32 89° NNW 21:46:11 27° E
Cosmos 220 Rocket 3.9 21:41:25 10° NNW 21:45:44 80° ENE 21:47:57 28° SSE
Cosmos 1844 Rocket 3.8 21:40:46 10° NNW 21:45:52 32° NE 21:49:01 19° E
SL-16 R/B 2.1 21:40:26 10° SSW 21:46:05 79° ESE 21:51:48 10° NNE
Cosmos 1238 Rocket 4.5 21:40:14 10° N 21:46:45 49° ENE 21:50:35 24° SE
H-2A R/B 3.9 21:47:48 15° E 21:49:09 17° ENE 21:51:57 10° NNE
SL-08 RB Rocket 3.7 21:46:53 25° SSE 21:49:30 72° ENE 21:54:03 10° N
Tiangong 1 2.4 21:48:55 10° WSW 21:50:36 22° SSW 21:50:36 22° SSW
H-2A R/B 2.0 21:49:25 26° SE 21:52:17 64° ENE 21:57:15 10° N
Cosmos 2322 4.4 21:51:08 26° SE 21:53:06 33° ESE 21:58:06 10° NE
Cosmos 1536 3.3 21:49:29 10° SSW 21:53:31 63° WNW 21:57:35 10° N
SL-8 R/B 3.6 21:49:16 10° W 21:54:05 90° NNE 21:56:53 25° E
Cosmos 839 Rocket 4.3 21:48:48 10° SW 21:54:57 69° NW 22:01:24 10° NE
Lacrosse 5 rocket 3.4 21:53:12 10° W 21:55:35 16° SW 21:57:25 12° SSW
ATLAS 3B R/B 2.7 21:50:02 10° NW 21:56:53 72° NE 22:00:43 27° SE
COSMOS 2428 4.0 21:59:46 21° E 21:59:46 21° E 22:03:46 10° NE
Cosmos 2219 Rocket 4.1 22:02:25 12° E 22:02:25 12° E 22:03:38 10° ENE
NOSS 2-3 (D) 3.9 21:56:51 10° SSW 22:01:32 64° SE 22:07:07 10° NE
SPOT 5 2.8 22:00:07 26° SSE 22:02:57 87° WSW 22:07:42 10° NNW
Cosmos 1892 Rocket 3.8 22:02:32 10° N 22:06:56 55° ENE 22:08:12 40° SE
Meteor 1-5 Rocket 4.2 22:03:05 10° SSW 22:08:25 74° WNW 22:13:44 10° N
ERS-1 Rocket 3.9 22:06:06 14° SSW 22:10:08 45° W 22:14:58 10° NNW
EXPRESS MD2 3.5 22:07:10 10° WSW 22:10:29 78° SSE 22:17:11 10° ENE
Lacrosse 5 2.3 22:11:22 37° SE 22:11:30 37° SE 22:16:10 10° ENE
GP-B 4.3 22:08:47 10° NNE 22:12:31 26° E 22:12:40 26° E
Cosmos 2360 Rocket 2.2 22:09:04 22° S 22:12:37 55° ESE 22:18:07 10° NE
Atlas Centaur 2 4.2 22:09:28 10° SW 22:13:29 16° SSW 22:13:54 16° S
Cosmos 2333 Rocket 4.2 22:15:22 12° E 22:15:22 12° E 22:16:28 10° ENE
Cosmos 1980 Rocket 4.2 22:09:21 10° WSW 22:14:13 29° NW 22:19:06 10° NNE
Cosmos 2315 Rocket 4.3 22:10:18 10° NNW 22:16:28 67° W 22:21:01 19° S
Cosmos 1515 3.8 22:13:08 10° NNW 22:16:56 71° W 22:18:02 43° SSW
Cosmos 1486 Rocket 4.0 22:18:58 10° NNW 22:24:14 68° ENE 22:25:53 43° SE
BREEZE-M DEB (TANK) 3.8 22:22:36 10° WSW 22:23:00 14° WSW 22:23:00 14° WSW
Okean 2 4.1 22:21:55 10° NNW 22:25:53 48° W 22:27:31 30° SSW
DMSP B5D2-2 4.1 22:21:31 10° NNE 22:26:43 60° E 22:28:21 41° SSE
Cosmos 1544 Rocket 3.7 22:26:33 50° ESE 22:27:03 53° E 22:31:25 10° NNE
ATLAS 2AS CENTAUR R/B 3.0 22:20:25 10° SSW 22:28:11 76° SE 22:36:20 10° NE
Cosmos 1302 Rocket 4.3 22:29:34 43° SE 22:30:15 46° ESE 22:35:17 10° NNE
ERBS 3.7 22:27:55 10° W 22:31:14 40° NNW 22:34:33 10° NE
Cosmos 1437 Rocket 4.0 22:32:37 29° ENE 22:32:37 29° ENE 22:35:20 10° NNE
Cosmos 1500 3.3 22:36:32 57° SW 22:37:12 75° W 22:41:06 10° N
Cosmos 1110 Rocket 3.9 22:34:50 22° SSW 22:38:15 83° WNW 22:43:29 10° NNE
NOSS 2-3 (E) 4.2 22:33:57 10° SW 22:38:47 71° NW 22:44:36 10° NE
Meteor 1-12 Rocket 4.1 22:37:02 42° SSE 22:38:55 69° E 22:44:32 10° NNE
Cosmos 1455 Rocket 3.0 22:39:46 61° ESE 22:40:03 63° E 22:44:29 10° NNE
Cosmos 405 3.0 22:40:31 74° NNE 22:40:31 74° NNE 22:43:50 10° NNE
Cosmos 2237 Rocket 4.2 22:42:56 13° ENE 22:42:56 13° ENE 22:44:20 10° ENE
CZ-2C R/B 4.4 22:41:12 20° ENE 22:42:00 21° ENE 22:45:33 10° NNE
Cosmos 1066 Rocket 4.1 22:38:02 10° NNW 22:43:26 77° W 22:45:16 43° S
CENTAUR R/B 4.0 22:43:03 10° NW 22:50:02 39° NNE 22:56:10 16° E
Landsat 7 4.2 22:49:51 43° SSW 22:51:08 58° W 22:55:51 10° NNW
SPOT 1/Viking Rocket 4.5 22:51:14 28° SSW 22:53:28 42° W 22:58:26 10° NNW
Cosmos 1745 Rocket 3.8 22:52:00 45° S 22:54:00 76° E 23:00:10 10° NNE
Cosmos 1331 Rocket 4.2 22:52:26 24° SW 22:55:34 68° WNW 23:00:49 10° NNE
Cosmos 1354 Rocket 4.0 22:52:53 10° NNW 22:58:14 71° ENE 22:59:07 58° ESE
USA 81 4.3 22:58:16 10° N 23:03:25 49° E 23:03:49 48° E
Cosmos 1842 3.9 23:01:42 10° N 23:04:53 46° NE 23:04:53 46° NE
USA 215 3.9 23:01:12 17° E 23:06:08 52° NNE 23:12:27 10° NW
Terra 2.1 23:05:40 51° SW 23:06:27 58° W 23:11:10 10° NNW
Cosmos 1975 3.5 23:06:49 45° W 23:07:18 48° WNW 23:11:12 10° N
CARTOSAT-1 4.1 23:10:57 46° WSW 23:11:17 47° W 23:15:29 10° NNW
ATLAS CENTAUR R/B 3.8 23:10:31 10° N 23:12:19 13° NNE 23:13:41 11° NE
BREEZE-M (TANK) 3.3 23:03:15 10° WNW 23:13:18 57° SW 23:13:24 57° SSW
IGS 5A 4.2 23:14:31 44° WSW 23:14:37 45° W 23:18:38 10° NNW
Cosmos 2278 Rocket 2.5 23:10:03 10° NNW 23:15:40 57° ENE 23:16:39 50° E
Cosmos 2237 4.2 23:13:37 40° SW 23:15:48 81° WNW 23:21:33 10° NNE
Cosmos 1602 Rocket 3.6 23:15:32 10° NNW 23:19:38 74° NW 23:19:38 74° NW
Cosmos 2263 Rocket 4.5 23:17:07 10° WNW 23:20:09 15° W 23:22:55 11° SW
BREEZE-M DEB 4.2 23:15:50 10° WNW 23:19:48 31° WSW 23:19:48 31° WSW
Cosmos 2322 Rocket 4.3 23:16:54 10° WSW 23:21:38 26° NW 23:26:23 10° N
USA 238 DEB 4.2 23:15:00 10° NW 23:21:45 48° WSW 23:23:31 40° SSW
USA 238 4.2 23:15:06 10° NW 23:21:51 49° WSW 23:23:37 41° SSW
Cosmos 1503 Rocket 3.9 23:16:44 10° NNW 23:22:07 77° WSW 23:22:38 70° SSW
NOSS 3-2 (A) 3.9 23:15:13 10° NW 23:22:38 80° SW 23:25:04 49° SSE
Cosmos 1666 3.4 23:23:53 52° N 23:23:53 52° N 23:26:56 10° N
CZ-4B R/B 3.7 23:19:13 10° NNE 23:23:14 51° ENE 23:23:14 51° ENE
Spot 4 3.7 23:24:02 77° WSW 23:24:09 78° WSW 23:28:56 10° NNW
H-2A R/B 2.3 23:24:56 62° W 23:24:56 62° W 23:29:02 10° NNW
Cosmos 1386 Rocket 4.5 23:25:47 51° SSW 23:27:29 79° W 23:33:48 10° N
Cosmos 1743 3.7 23:29:13 44° NW 23:29:13 44° NW 23:32:27 10° N
Timation 1 Rocket 4.3 23:22:48 10° NNW 23:28:49 76° ENE 23:29:44 63° ESE
Cosmos 1844 Rocket 3.0 23:24:30 10° NW 23:30:00 51° WSW 23:30:40 49° SW
Cosmos 1241 Rocket 4.4 23:29:01 52° SSW 23:30:45 80° ESE 23:37:14 10° NE
SL-16 R/B 4.5 23:26:24 10° W 23:30:53 23° NW 23:35:22 10° N
H-2A R/B 4.0 23:30:04 15° WSW 23:32:09 19° W 23:35:40 10° NW
deb Chang Zheng 4 3.8 23:30:18 10° NNE 23:34:05 65° NNE 23:34:05 65° NNE
Meteor 2-9 Rocket 4.1 23:36:48 74° SSE 23:37:16 80° E 23:42:58 10° NNE
NOSS 0 Rocket 4.2 23:38:10 50° E 23:38:10 50° E 23:43:49 10° NE
COSMOS 2428 2.9 23:41:45 48° SW 23:43:17 70° WNW 23:49:02 10° NNE
Cosmos 2219 Rocket 2.0 23:44:06 79° SE 23:44:10 79° ESE 23:49:51 10° NNE
CZ-4 R/B 3.9 23:40:08 10° N 23:44:51 71° WNW 23:44:52 71° WNW
SL-16 R/B 3.9 23:48:03 19° ENE 23:48:03 19° ENE 23:50:42 10° NE
ATLAS 3B R/B 3.8 23:41:28 10° WNW 23:47:00 28° WSW 23:47:57 27° SW
Cosmos 2181 Rocket 3.9 23:43:03 10° N 23:49:32 86° W 23:50:29 67° S
GP-B 4.3 23:45:52 10° NNW 23:49:54 35° W 23:50:07 35° W
Meteor 1-4 Rocket 4.3 23:52:17 32° NNE 23:52:17 32° NNE 23:54:25 10° NNE
CZ-2C R/B 3.0 23:47:19 10° NNE 23:52:07 53° E 23:52:07 53° E
Lacrosse 5 2.4 23:50:01 14° WSW 23:54:21 59° NNW 23:59:22 10° NE
Cosmos 1844 4.3 23:49:14 10° NW 23:54:34 43° WSW 23:54:45 43° WSW
